Погода в Гармашевке

Россия / Воронежская область     49°38′53″N   40°04′31″E
темп.,
°C
ветер,
м/с
пор.,
м/с
влажн.,
%
обл.,
%
осадки,
мм/ч
давл.,
гПа
погр.,
м
24 июля, сб
сб2400:00+16сз33630 0.0 101136
03:00+15сз22660 0.0 101214
06:00+16зсз23670 0.0 101272
09:00+23сз334924 0.0 1012667
12:00+25сз54405 0.0 10131753
15:00+27сз453697 0.0 10122615
18:00+23ссз265834 0.0 1014221
21:00+20ссз357073 0.1 1015103
25 июля, вс
вс2500:00+17с33761 0.0 101639
03:00+16ссв22750 0.0 101715
06:00+16с24735 0.0 1019106
09:00+22с34475 0.0 1019708
12:00+25с44370 0.0 10201543
15:00+27ссз44340 0.0 10192028
18:00+26с44370 0.0 10191952
21:00+19св38580 0.0 1021131
26 июля, пн
пн2600:00+17св36640 0.0 102292
03:00+16ссв34670 0.0 102261
06:00+17ссв37685 0.0 1023163
09:00+23св564465 0.0 1022652
12:00+27св543499 0.0 10221852
15:00+28св4430100 0.0 10212125
18:00+27ссв443499 0.0 10201520
21:00+20ссв410510 0.0 1022218
27 июля, вт
вт2700:00+19св613493 0.0 1022316
03:00+17св411610 0.0 1022217
06:00+17св411620 0.0 1022257
09:00+24всв68390 0.0 1022843
12:00+28всв55310 0.0 10211802
15:00+30св43280 0.0 10192690
18:00+29св44317 0.0 10192312
21:00+21св411450 0.0 1020200
28 июля, ср
ср2800:00+19всв410480 0.0 1021177
03:00+18в335097 0.0 102140
06:00+19всв244882 0.0 1020113
09:00+25в33350 0.0 1020657
12:00+29вюв32280 0.0 10182526
15:00+30в332510 0.0 10162915
18:00+30в322757 0.0 10151569
21:00+25вюв363697 0.0 101699